Hourly Weather Alisovo

Today, 24 November, Tuesday

Time Temperature Precipitation Wind Pressure Humidity
00:00 -10°C° 0 mm 4 mps 743 mmHg 81%
01:00 -10°C° 0 mm 4 mps 742 mmHg 81%
02:00 -10°C° 0 mm 4 mps 742 mmHg 81%
03:00 -10°C° 0 mm 4 mps 742 mmHg 81%
04:00 -10°C° 0 mm 4 mps 742 mmHg 82%
05:00 -10°C° 0 mm 4 mps 742 mmHg 83%
06:00 -10°C° 0 mm 4 mps 741 mmHg 84%
07:00 -10°C° 0 mm 4 mps 741 mmHg 85%
08:00 -10°C° 0 mm 4 mps 741 mmHg 86%
09:00 -11°C° 0 mm 5 mps 741 mmHg 86%
10:00 -10°C° 0 mm 5 mps 741 mmHg 86%
11:00 -8°C° 0 mm 5 mps 741 mmHg 84%
12:00 -8°C° 0 mm 6 mps 741 mmHg 82%
13:00 -8°C° 0 mm 6 mps 741 mmHg 80%
14:00 -7°C° 0 mm 5 mps 741 mmHg 83%
15:00 -7°C° 0 mm 5 mps 741 mmHg 85%
16:00 -7°C° 0 mm 4 mps 741 mmHg 87%
17:00 -8°C° 0 mm 4 mps 740 mmHg 89%
18:00 -8°C° 0 mm 4 mps 740 mmHg 90%
19:00 -8°C° 0 mm 4 mps 740 mmHg 92%
20:00 -9°C° 0 mm 4 mps 740 mmHg 92%
21:00 -9°C° 0 mm 4 mps 740 mmHg 93%
22:00 -9°C° 0 mm 4 mps 740 mmHg 93%
23:00 -9°C° 0 mm 4 mps 740 mmHg 93%

Tomorrow, 25 November, Wednesday

Time Temperature Precipitation Wind Pressure Humidity
00:00 -9°C° 0 mm 4 mps 740 mmHg 93%
01:00 -9°C° 0 mm 4 mps 740 mmHg 92%
02:00 -9°C° 0 mm 4 mps 740 mmHg 92%
03:00 -10°C° 0 mm 5 mps 740 mmHg 92%
04:00 -10°C° 0 mm 5 mps 740 mmHg 92%
05:00 -10°C° 0 mm 5 mps 739 mmHg 91%
06:00 -10°C° 0 mm 5 mps 739 mmHg 91%
07:00 -10°C° 0 mm 5 mps 739 mmHg 90%
08:00 -10°C° 0.1 mm 6 mps 739 mmHg 90%
09:00 -10°C° 0.1 mm 6 mps 739 mmHg 91%
10:00 -10°C° 0.1 mm 6 mps 739 mmHg 91%
11:00 -9°C° 0.2 mm 6 mps 739 mmHg 91%
12:00 -9°C° 0.2 mm 7 mps 738 mmHg 91%
13:00 -9°C° 0.2 mm 7 mps 738 mmHg 91%
14:00 -9°C° 0.3 mm 7 mps 738 mmHg 91%
15:00 -8°C° 0.3 mm 6 mps 738 mmHg 92%
16:00 -8°C° 0.3 mm 6 mps 738 mmHg 93%
17:00 -9°C° 0.2 mm 6 mps 737 mmHg 93%
18:00 -9°C° 0.2 mm 6 mps 737 mmHg 93%
19:00 -9°C° 0.2 mm 6 mps 737 mmHg 94%
20:00 -9°C° 0.1 mm 6 mps 737 mmHg 94%
21:00 -8°C° 0.1 mm 6 mps 737 mmHg 94%
22:00 -8°C° 0.1 mm 6 mps 737 mmHg 94%
23:00 -7°C° 0.3 mm 5 mps 737 mmHg 95%

Day after tomorrow, 26 November, Thursday

Time Temperature Precipitation Wind Pressure Humidity
00:00 -7°C° 0.3 mm 5 mps 737 mmHg 95%
01:00 -7°C° 0.3 mm 5 mps 737 mmHg 95%
02:00 -7°C° 0.2 mm 4 mps 737 mmHg 95%
03:00 -7°C° 0.2 mm 4 mps 737 mmHg 96%
04:00 -7°C° 0.2 mm 4 mps 737 mmHg 96%
05:00 -6°C° 0.1 mm 3 mps 737 mmHg 96%
06:00 -7°C° 0.1 mm 3 mps 737 mmHg 96%
07:00 -7°C° 0.1 mm 3 mps 737 mmHg 96%
08:00 -7°C° 0.1 mm 3 mps 737 mmHg 95%
09:00 -6°C° 0.1 mm 3 mps 737 mmHg 95%
10:00 -6°C° 0.1 mm 3 mps 737 mmHg 94%
11:00 -6°C° 0.1 mm 3 mps 737 mmHg 94%
12:00 -5°C° 0.1 mm 3 mps 737 mmHg 94%
13:00 -5°C° 0.1 mm 3 mps 737 mmHg 94%
14:00 -5°C° 0 mm 3 mps 737 mmHg 95%
15:00 -6°C° 0 mm 3 mps 737 mmHg 96%
16:00 -5°C° 0 mm 2 mps 737 mmHg 97%
17:00 -6°C° 0 mm 2 mps 737 mmHg 97%
18:00 -6°C° 0 mm 2 mps 737 mmHg 97%
19:00 -4°C° 0 mm 1 mps 737 mmHg 97%
20:00 -6°C° 0 mm 1 mps 737 mmHg 97%
21:00 -6°C° 0 mm 1 mps 738 mmHg 97%
22:00 -7°C° 0 mm 1 mps 738 mmHg 97%
23:00 -7°C° 0 mm 1 mps 738 mmHg 97%

27 November, Friday

Time Temperature Precipitation Wind Pressure Humidity
00:00 -7°C° 0 mm 1 mps 738 mmHg 97%
01:00 -7°C° 0 mm 0 mps 738 mmHg 97%
02:00 -7°C° 0 mm 0 mps 738 mmHg 97%
03:00 -7°C° 0 mm 0 mps 738 mmHg 96%
04:00 -7°C° 0 mm 0 mps 738 mmHg 96%
05:00 -7°C° 0 mm 0 mps 739 mmHg 96%
06:00 -7°C° 0 mm 0 mps 739 mmHg 96%
07:00 -7°C° 0 mm 0 mps 739 mmHg 96%
08:00 -7°C° 0 mm 0 mps 739 mmHg 96%
09:00 -7°C° 0 mm 0 mps 739 mmHg 96%
10:00 -6°C° 0 mm 0 mps 740 mmHg 96%
11:00 -6°C° 0 mm 1 mps 740 mmHg 95%
12:00 -6°C° 0 mm 1 mps 740 mmHg 94%
13:00 -4°C° 0 mm 1 mps 740 mmHg 94%
14:00 -6°C° 0 mm 1 mps 740 mmHg 94%
15:00 -8°C° 0 mm 2 mps 740 mmHg 95%
16:00 -9°C° 0 mm 2 mps 741 mmHg 96%
17:00 -9°C° 0 mm 2 mps 741 mmHg 96%
18:00 -10°C° 0 mm 2 mps 741 mmHg 95%
19:00 -10°C° 0 mm 2 mps 741 mmHg 95%
20:00 -10°C° 0 mm 2 mps 741 mmHg 95%
21:00 -10°C° 0 mm 2 mps 742 mmHg 96%
22:00 -10°C° 0 mm 3 mps 742 mmHg 96%
23:00 -10°C° 0 mm 3 mps 742 mmHg 96%

28 November, Saturday

Time Temperature Precipitation Wind Pressure Humidity
00:00 -10°C° 0 mm 4 mps 742 mmHg 96%
01:00 -9°C° 0 mm 4 mps 742 mmHg 96%
02:00 -8°C° 0.2 mm 5 mps 742 mmHg 96%
03:00 -8°C° 0.2 mm 5 mps 742 mmHg 95%
04:00 -8°C° 0.2 mm 6 mps 742 mmHg 95%
05:00 -8°C° 0.3 mm 6 mps 743 mmHg 95%
06:00 -8°C° 0.3 mm 6 mps 743 mmHg 94%
07:00 -6°C° 0.3 mm 6 mps 743 mmHg 94%
08:00 -6°C° 0.1 mm 6 mps 743 mmHg 94%
09:00 -5°C° 0.1 mm 6 mps 743 mmHg 94%
10:00 -5°C° 0.1 mm 6 mps 744 mmHg 94%
11:00 -4°C° 0.1 mm 7 mps 744 mmHg 95%
12:00 -4°C° 0.1 mm 7 mps 744 mmHg 95%
13:00 -5°C° 0.1 mm 8 mps 744 mmHg 95%
14:00 -5°C° 0.2 mm 8 mps 745 mmHg 95%
15:00 -5°C° 0.2 mm 8 mps 745 mmHg 94%
16:00 -5°C° 0.2 mm 8 mps 745 mmHg 94%
17:00 -6°C° 0.1 mm 7 mps 746 mmHg 93%
18:00 -6°C° 0.1 mm 7 mps 746 mmHg 93%
19:00 -7°C° 0.1 mm 7 mps 746 mmHg 92%
20:00 -7°C° 0.1 mm 7 mps 747 mmHg 92%
21:00 -6°C° 0.1 mm 6 mps 747 mmHg 93%
22:00 -6°C° 0.1 mm 6 mps 747 mmHg 93%
23:00 -6°C° 0 mm 6 mps 747 mmHg 92%

29 November, Sunday

Time Temperature Precipitation Wind Pressure Humidity
00:00 -6°C° 0 mm 6 mps 748 mmHg 92%
01:00 -6°C° 0 mm 6 mps 748 mmHg 92%
02:00 -6°C° 0 mm 5 mps 748 mmHg 92%
03:00 -7°C° 0 mm 5 mps 748 mmHg 93%
04:00 -7°C° 0 mm 5 mps 748 mmHg 94%
05:00 -7°C° 0 mm 5 mps 748 mmHg 95%
06:00 -7°C° 0 mm 5 mps 748 mmHg 96%
07:00 -7°C° 0 mm 5 mps 748 mmHg 97%
08:00 -7°C° 0 mm 5 mps 749 mmHg 97%
09:00 -6°C° 0 mm 5 mps 749 mmHg 97%
10:00 -6°C° 0 mm 5 mps 749 mmHg 96%
11:00 -6°C° 0 mm 5 mps 749 mmHg 96%
12:00 -5°C° 0 mm 5 mps 749 mmHg 95%
13:00 -5°C° 0 mm 5 mps 749 mmHg 95%
14:00 -4°C° 0 mm 4 mps 749 mmHg 95%
15:00 -4°C° 0 mm 4 mps 749 mmHg 94%
16:00 -4°C° 0 mm 4 mps 749 mmHg 94%
17:00 -4°C° 0 mm 4 mps 749 mmHg 94%
18:00 -4°C° 0 mm 3 mps 749 mmHg 94%
19:00 -5°C° 0 mm 3 mps 749 mmHg 95%
20:00 -5°C° 0 mm 3 mps 749 mmHg 93%
21:00 -6°C° 0 mm 3 mps 748 mmHg 91%
22:00 -6°C° 0 mm 3 mps 748 mmHg 90%
23:00 -7°C° 0 mm 3 mps 748 mmHg 90%
Show more